******** Week 388 almanac for PRN-01 ******** ID: 01 Health: 000 Eccentricity: 0.1958847046E-002 Time of Applicability(s): 61440.0000 Orbital Inclination(rad): 0.9566731105 Rate of Right Ascen(r/s): -0.8011762293E-008 SQRT(A) (m 1/2): 5153.537598 Right Ascen at Week(rad): -0.3721599927E+000 Argument of Perigee(rad): 0.149517062 Mean Anom(rad): 0.1427917401E+001 Af0(s): 0.1735687256E-003 Af1(s/s): -0.7275957614E-011 week: 388 ******** Week 388 almanac for PRN-02 ******** ID: 02 Health: 000 Eccentricity: 0.1703214645E-001 Time of Applicability(s): 61440.0000 Orbital Inclination(rad): 0.9613529503 Rate of Right Ascen(r/s): -0.8034620388E-008 SQRT(A) (m 1/2): 5153.657227 Right Ascen at Week(rad): -0.5337766283E+000 Argument of Perigee(rad): -0.710520352 Mean Anom(rad): 0.2708862141E+001 Af0(s): 0.1754760742E-003 Af1(s/s): 0.7275957614E-011 week: 388 ******** Week 388 almanac for PRN-03 ******** ID: 03 Health: 000 Eccentricity: 0.6916046143E-002 Time of Applicability(s): 61440.0000 Orbital Inclination(rad): 0.9956637862 Rate of Right Ascen(r/s): -0.7406022776E-008 SQRT(A) (m 1/2): 5153.700195 Right Ascen at Week(rad): 0.6214768116E+000 Argument of Perigee(rad): 1.298704612 Mean Anom(rad): -0.8043249996E+000 Af0(s): 0.2698898315E-003 Af1(s/s): -0.2182787284E-010 week: 388 ******** Week 388 almanac for PRN-04 ******** ID: 04 Health: 000 Eccentricity: 0.3945827484E-002 Time of Applicability(s): 61440.0000 Orbital Inclination(rad): 0.9724743110 Rate of Right Ascen(r/s): -0.8011762293E-008 SQRT(A) (m 1/2): 5153.603516 Right Ascen at Week(rad): 0.1688912847E+001 Argument of Perigee(rad): -2.914287111 Mean Anom(rad): 0.2255630365E+001 Af0(s): 0.6484985352E-004 Af1(s/s): 0.0000000000E+000 week: 388 ******** Week 388 almanac for PRN-05 ******** ID: 05 Health: 000 Eccentricity: 0.5375862122E-002 Time of Applicability(s): 61440.0000 Orbital Inclination(rad): 0.9820317304 Rate of Right Ascen(r/s): -0.7543171346E-008 SQRT(A) (m 1/2): 5153.523926 Right Ascen at Week(rad): 0.5591824361E+000 Argument of Perigee(rad): 1.507261584 Mean Anom(rad): 0.2766702879E+001 Af0(s): -0.2365112305E-003 Af1(s/s): 0.0000000000E+000 week: 388 ******** Week 388 almanac for PRN-06 ******** ID: 06 Health: 000 Eccentricity: 0.3798007965E-002 Time of Applicability(s): 61440.0000 Orbital Inclination(rad): 0.9853453686 Rate of Right Ascen(r/s): -0.7771752296E-008 SQRT(A) (m 1/2): 5153.711426 Right Ascen at Week(rad): -0.4161518353E+000 Argument of Perigee(rad): -0.571719808 Mean Anom(rad): 0.5508934720E+000 Af0(s): -0.5235671997E-003 Af1(s/s): 0.1091393642E-010 week: 388 ******** Week 388 almanac for PRN-07 ******** ID: 07 Health: 000 Eccentricity: 0.2094364166E-001 Time of Applicability(s): 61440.0000 Orbital Inclination(rad): 0.9516157676 Rate of Right Ascen(r/s): -0.7977475151E-008 SQRT(A) (m 1/2): 5153.711426 Right Ascen at Week(rad): 0.2696061865E+001 Argument of Perigee(rad): -1.949381737 Mean Anom(rad): -0.2761277770E+000 Af0(s): -0.2241134644E-003 Af1(s/s): -0.3637978807E-011 week: 388 ******** Week 388 almanac for PRN-08 ******** ID: 08 Health: 000 Eccentricity: 0.1184320450E-001 Time of Applicability(s): 61440.0000 Orbital Inclination(rad): 0.9406502018 Rate of Right Ascen(r/s): -0.8446066098E-008 SQRT(A) (m 1/2): 5153.712402 Right Ascen at Week(rad): -0.1544432905E+001 Argument of Perigee(rad): 0.550050457 Mean Anom(rad): 0.2455283807E+001 Af0(s): 0.3471374512E-003 Af1(s/s): -0.1091393642E-010 week: 388 ******** Week 388 almanac for PRN-09 ******** ID: 09 Health: 000 Eccentricity: 0.3847122192E-002 Time of Applicability(s): 61440.0000 Orbital Inclination(rad): 0.9667997805 Rate of Right Ascen(r/s): -0.8068907531E-008 SQRT(A) (m 1/2): 5153.609863 Right Ascen at Week(rad): 0.1623328802E+001 Argument of Perigee(rad): 2.063520618 Mean Anom(rad): 0.3080698934E+001 Af0(s): 0.6790161133E-003 Af1(s/s): -0.7275957614E-011 week: 388 ******** Week 388 almanac for PRN-10 ******** ID: 10 Health: 000 Eccentricity: 0.1138782501E-001 Time of Applicability(s): 61440.0000 Orbital Inclination(rad): 0.9951604488 Rate of Right Ascen(r/s): -0.7383164681E-008 SQRT(A) (m 1/2): 5153.613770 Right Ascen at Week(rad): 0.6189661165E+000 Argument of Perigee(rad): -2.263893863 Mean Anom(rad): -0.1693702418E+001 Af0(s): -0.5331039429E-003 Af1(s/s): 0.7275957614E-011 week: 388 ******** Week 388 almanac for PRN-11 ******** ID: 11 Health: 000 Eccentricity: 0.2676963806E-002 Time of Applicability(s): 61440.0000 Orbital Inclination(rad): 0.9622577593 Rate of Right Ascen(r/s): -0.7988904198E-008 SQRT(A) (m 1/2): 5153.625977 Right Ascen at Week(rad): -0.4016696485E+000 Argument of Perigee(rad): -2.314386773 Mean Anom(rad): 0.1750301291E+001 Af0(s): -0.2107620239E-003 Af1(s/s): 0.1091393642E-010 week: 388 ******** Week 388 almanac for PRN-12 ******** ID: 12 Health: 000 Eccentricity: 0.8779048920E-002 Time of Applicability(s): 61440.0000 Orbital Inclination(rad): 0.9587463814 Rate of Right Ascen(r/s): -0.7783181344E-008 SQRT(A) (m 1/2): 5153.634277 Right Ascen at Week(rad): -0.2468554838E+001 Argument of Perigee(rad): 1.590181560 Mean Anom(rad): -0.1031911048E+001 Af0(s): -0.6017684937E-003 Af1(s/s): 0.0000000000E+000 week: 388 ******** Week 388 almanac for PRN-13 ******** ID: 13 Health: 000 Eccentricity: 0.2342224121E-002 Time of Applicability(s): 61440.0000 Orbital Inclination(rad): 0.9593875374 Rate of Right Ascen(r/s): -0.7748894201E-008 SQRT(A) (m 1/2): 5153.507812 Right Ascen at Week(rad): -0.2576922941E+001 Argument of Perigee(rad): 1.779525572 Mean Anom(rad): -0.1076766129E+001 Af0(s): 0.4415512085E-003 Af1(s/s): 0.3637978807E-011 week: 388 ******** Week 388 almanac for PRN-14 ******** ID: 14 Health: 000 Eccentricity: 0.7493972778E-002 Time of Applicability(s): 61440.0000 Orbital Inclination(rad): 0.9421182693 Rate of Right Ascen(r/s): -0.7897471819E-008 SQRT(A) (m 1/2): 5153.609375 Right Ascen at Week(rad): -0.2526308316E+001 Argument of Perigee(rad): -2.673307942 Mean Anom(rad): -0.1135664475E+001 Af0(s): 0.7495880127E-003 Af1(s/s): 0.0000000000E+000 week: 388 ******** Week 388 almanac for PRN-15 ******** ID: 15 Health: 000 Eccentricity: 0.1715326309E-001 Time of Applicability(s): 61440.0000 Orbital Inclination(rad): 0.9449705149 Rate of Right Ascen(r/s): -0.8228914196E-008 SQRT(A) (m 1/2): 5153.712402 Right Ascen at Week(rad): 0.1474554013E+001 Argument of Perigee(rad): 1.562763526 Mean Anom(rad): 0.1410833514E+001 Af0(s): 0.4444122314E-003 Af1(s/s): 0.3637978807E-011 week: 388 ******** Week 388 almanac for PRN-16 ******** ID: 16 Health: 000 Eccentricity: 0.1520824432E-001 Time of Applicability(s): 61440.0000 Orbital Inclination(rad): 0.9577756592 Rate of Right Ascen(r/s): -0.7794610391E-008 SQRT(A) (m 1/2): 5153.694824 Right Ascen at Week(rad): -0.2451896391E+001 Argument of Perigee(rad): 0.944798092 Mean Anom(rad): -0.2742809705E+001 Af0(s): 0.3328323364E-003 Af1(s/s): 0.7275957614E-011 week: 388 ******** Week 388 almanac for PRN-17 ******** ID: 17 Health: 000 Eccentricity: 0.1267910004E-001 Time of Applicability(s): 61440.0000 Orbital Inclination(rad): 0.9562057257 Rate of Right Ascen(r/s): -0.8286059433E-008 SQRT(A) (m 1/2): 5153.648926 Right Ascen at Week(rad): -0.1436733297E+001 Argument of Perigee(rad): -1.083284050 Mean Anom(rad): 0.2480306119E+001 Af0(s): -0.2002716064E-003 Af1(s/s): -0.3637978807E-011 week: 388 ******** Week 388 almanac for PRN-18 ******** ID: 18 Health: 000 Eccentricity: 0.6522655487E-002 Time of Applicability(s): 61440.0000 Orbital Inclination(rad): 0.9703111584 Rate of Right Ascen(r/s): -0.7897471819E-008 SQRT(A) (m 1/2): 5153.562500 Right Ascen at Week(rad): -0.4239490717E+000 Argument of Perigee(rad): -2.826270469 Mean Anom(rad): 0.5210040661E+000 Af0(s): -0.2574920654E-003 Af1(s/s): 0.7275957614E-011 week: 388 ******** Week 388 almanac for PRN-19 ******** ID: 19 Health: 000 Eccentricity: 0.1180028915E-001 Time of Applicability(s): 61440.0000 Orbital Inclination(rad): 0.9553368694 Rate of Right Ascen(r/s): -0.8320346576E-008 SQRT(A) (m 1/2): 5153.527832 Right Ascen at Week(rad): -0.1392981139E+001 Argument of Perigee(rad): 3.061706934 Mean Anom(rad): -0.2184594246E+001 Af0(s): 0.7047653198E-003 Af1(s/s): 0.0000000000E+000 week: 388 ******** Week 388 almanac for PRN-20 ******** ID: 20 Health: 000 Eccentricity: 0.1847743988E-002 Time of Applicability(s): 61440.0000 Orbital Inclination(rad): 0.9621618855 Rate of Right Ascen(r/s): -0.8137481816E-008 SQRT(A) (m 1/2): 5153.567383 Right Ascen at Week(rad): 0.1627950593E+001 Argument of Perigee(rad): -1.702731782 Mean Anom(rad): -0.1208525941E+001 Af0(s): 0.2851486206E-003 Af1(s/s): 0.7275957614E-011 week: 388 ******** Week 388 almanac for PRN-21 ******** ID: 21 Health: 000 Eccentricity: 0.8330345154E-003 Time of Applicability(s): 61440.0000 Orbital Inclination(rad): 0.9650560758 Rate of Right Ascen(r/s): -0.7726036106E-008 SQRT(A) (m 1/2): 5153.582031 Right Ascen at Week(rad): 0.6218816537E+000 Argument of Perigee(rad): -0.180977900 Mean Anom(rad): -0.1333568969E+001 Af0(s): 0.3633499146E-003 Af1(s/s): -0.7275957614E-011 week: 388 ******** Week 388 almanac for PRN-22 ******** ID: 22 Health: 000 Eccentricity: 0.1165485382E-001 Time of Applicability(s): 61440.0000 Orbital Inclination(rad): 0.9572543454 Rate of Right Ascen(r/s): -0.7771752296E-008 SQRT(A) (m 1/2): 5153.672852 Right Ascen at Week(rad): -0.2448506353E+001 Argument of Perigee(rad): -0.969842875 Mean Anom(rad): 0.3080365998E+001 Af0(s): 0.8010864258E-004 Af1(s/s): 0.7275957614E-011 week: 388 ******** Week 388 almanac for PRN-23 ******** ID: 23 Health: 000 Eccentricity: 0.6722450256E-002 Time of Applicability(s): 61440.0000 Orbital Inclination(rad): 0.9900791374 Rate of Right Ascen(r/s): -0.7428880871E-008 SQRT(A) (m 1/2): 5153.703125 Right Ascen at Week(rad): 0.5859495769E+000 Argument of Perigee(rad): -2.728021921 Mean Anom(rad): -0.7274035030E+000 Af0(s): 0.6885528564E-003 Af1(s/s): 0.3637978807E-011 week: 388 ******** Week 388 almanac for PRN-24 ******** ID: 24 Health: 000 Eccentricity: 0.1879215240E-001 Time of Applicability(s): 61440.0000 Orbital Inclination(rad): 0.9357067090 Rate of Right Ascen(r/s): -0.8160339911E-008 SQRT(A) (m 1/2): 5153.666016 Right Ascen at Week(rad): 0.2584100742E+001 Argument of Perigee(rad): 1.180415818 Mean Anom(rad): 0.7038039426E+000 Af0(s): 0.2059936523E-003 Af1(s/s): 0.1818989404E-010 week: 388 ******** Week 388 almanac for PRN-25 ******** ID: 25 Health: 000 Eccentricity: 0.1173686981E-001 Time of Applicability(s): 61440.0000 Orbital Inclination(rad): 0.9472355334 Rate of Right Ascen(r/s): -0.7863184676E-008 SQRT(A) (m 1/2): 5153.228027 Right Ascen at Week(rad): -0.2564579938E+001 Argument of Perigee(rad): 0.983717611 Mean Anom(rad): -0.8680121668E+000 Af0(s): 0.3890991211E-003 Af1(s/s): -0.3637978807E-011 week: 388 ******** Week 388 almanac for PRN-26 ******** ID: 26 Health: 000 Eccentricity: 0.1142978668E-001 Time of Applicability(s): 61440.0000 Orbital Inclination(rad): 0.9280667656 Rate of Right Ascen(r/s): -0.8000333246E-008 SQRT(A) (m 1/2): 5153.557129 Right Ascen at Week(rad): -0.2642745172E+001 Argument of Perigee(rad): 0.731209243 Mean Anom(rad): -0.1940184593E+001 Af0(s): -0.3929138184E-003 Af1(s/s): 0.0000000000E+000 week: 388 ******** Week 388 almanac for PRN-27 ******** ID: 27 Health: 000 Eccentricity: 0.1442861557E-001 Time of Applicability(s): 61440.0000 Orbital Inclination(rad): 0.9497462285 Rate of Right Ascen(r/s): -0.8377491813E-008 SQRT(A) (m 1/2): 5153.615723 Right Ascen at Week(rad): -0.1510716786E+001 Argument of Perigee(rad): 0.902856301 Mean Anom(rad): 0.2639682079E+001 Af0(s): 0.0000000000E+000 Af1(s/s): 0.0000000000E+000 week: 388 ******** Week 388 almanac for PRN-28 ******** ID: 28 Health: 000 Eccentricity: 0.5073547363E-003 Time of Applicability(s): 61440.0000 Orbital Inclination(rad): 0.9624854596 Rate of Right Ascen(r/s): -0.7908900866E-008 SQRT(A) (m 1/2): 5153.604492 Right Ascen at Week(rad): 0.2672514361E+001 Argument of Perigee(rad): -0.104620411 Mean Anom(rad): 0.2275384862E+000 Af0(s): -0.4148483276E-003 Af1(s/s): 0.1091393642E-010 week: 388 ******** Week 388 almanac for PRN-29 ******** ID: 29 Health: 000 Eccentricity: 0.3634452820E-002 Time of Applicability(s): 61440.0000 Orbital Inclination(rad): 0.9589081684 Rate of Right Ascen(r/s): -0.8286059433E-008 SQRT(A) (m 1/2): 5153.604004 Right Ascen at Week(rad): -0.1419458037E+001 Argument of Perigee(rad): 2.907579690 Mean Anom(rad): 0.2302816378E+001 Af0(s): -0.2441406250E-003 Af1(s/s): 0.7275957614E-011 week: 388 ******** Week 388 almanac for PRN-30 ******** ID: 30 Health: 000 Eccentricity: 0.8190631866E-002 Time of Applicability(s): 61440.0000 Orbital Inclination(rad): 0.9369290999 Rate of Right Ascen(r/s): -0.8160339911E-008 SQRT(A) (m 1/2): 5153.594238 Right Ascen at Week(rad): 0.2684201602E+001 Argument of Perigee(rad): -2.258352282 Mean Anom(rad): -0.5388965139E+000 Af0(s): 0.3623962402E-003 Af1(s/s): 0.1091393642E-010 week: 388 ******** Week 388 almanac for PRN-31 ******** ID: 31 Health: 000 Eccentricity: 0.1109218597E-001 Time of Applicability(s): 61440.0000 Orbital Inclination(rad): 0.9553248852 Rate of Right Ascen(r/s): -0.7920329914E-008 SQRT(A) (m 1/2): 5153.604492 Right Ascen at Week(rad): 0.2721111892E+001 Argument of Perigee(rad): 1.008052329 Mean Anom(rad): -0.1355094135E+001 Af0(s): -0.1211166382E-003 Af1(s/s): 0.3637978807E-011 week: 388 ******** Week 388 almanac for PRN-32 ******** ID: 32 Health: 000 Eccentricity: 0.9551525116E-002 Time of Applicability(s): 61440.0000 Orbital Inclination(rad): 0.9697359156 Rate of Right Ascen(r/s): -0.8057478483E-008 SQRT(A) (m 1/2): 5153.538086 Right Ascen at Week(rad): 0.1640990179E+001 Argument of Perigee(rad): -1.975076664 Mean Anom(rad): -0.3101151138E+001 Af0(s): 0.2660751343E-003 Af1(s/s): 0.1818989404E-010 week: 388